• In Österreich
  • Länderverzeichnis
  • Für 7 Tage
  • Wassertemperatur
  • Satellitenkarten
  • Wetterkarte
  • News
  • Widgets
  • user-avatar
    Anmelden

    Stündliche Wetter Kesälahti

    Heute, 24 Januar, Mittwoch

    Zeit Temperatur Niederschläge Wind Luftdruck Luftfeuchtigkeit
    00:00 -14°C° 0 mm 3 m/S 756 mmHg 94%
    01:00 -14°C° 0 mm 3 m/S 756 mmHg 95%
    02:00 -13°C° 0 mm 3 m/S 756 mmHg 96%
    03:00 -11°C° 0,1 mm 4 m/S 755 mmHg 94%
    04:00 -9°C° 0,1 mm 4 m/S 755 mmHg 93%
    05:00 -8°C° 0,1 mm 5 m/S 755 mmHg 92%
    06:00 -8°C° 0 mm 5 m/S 754 mmHg 91%
    07:00 -8°C° 0 mm 5 m/S 754 mmHg 91%
    08:00 -8°C° 0 mm 5 m/S 753 mmHg 91%
    09:00 -9°C° 0,1 mm 6 m/S 753 mmHg 90%
    10:00 -10°C° 0,1 mm 6 m/S 752 mmHg 89%
    11:00 -10°C° 0,1 mm 6 m/S 752 mmHg 88%
    12:00 -10°C° 0,1 mm 6 m/S 752 mmHg 86%
    13:00 -10°C° 0,1 mm 6 m/S 751 mmHg 85%
    14:00 -10°C° 0,1 mm 6 m/S 750 mmHg 84%
    15:00 -10°C° 0,2 mm 6 m/S 750 mmHg 85%
    16:00 -10°C° 0,2 mm 6 m/S 749 mmHg 87%
    17:00 -9°C° 0,2 mm 7 m/S 749 mmHg 88%
    18:00 -9°C° 0,3 mm 7 m/S 749 mmHg 88%
    19:00 -9°C° 0,3 mm 7 m/S 748 mmHg 89%
    20:00 -8°C° 0,3 mm 7 m/S 748 mmHg 89%
    21:00 -8°C° 0,3 mm 7 m/S 748 mmHg 89%
    22:00 -6°C° 0,3 mm 6 m/S 747 mmHg 89%
    23:00 -5°C° 0,3 mm 6 m/S 747 mmHg 89%

    Morgen, 25 Januar, Donnerstag

    Zeit Temperatur Niederschläge Wind Luftdruck Luftfeuchtigkeit
    00:00 -5°C° 0,1 mm 6 m/S 747 mmHg 90%
    01:00 -4°C° 0,1 mm 6 m/S 747 mmHg 90%
    02:00 -3°C° 0,1 mm 6 m/S 746 mmHg 90%
    03:00 -3°C° 0,5 mm 7 m/S 745 mmHg 90%
    04:00 -2°C° 0,5 mm 8 m/S 745 mmHg 89%
    05:00 -2°C° 0,5 mm 8 m/S 744 mmHg 89%
    06:00 -2°C° 1,3 mm 8 m/S 743 mmHg 89%
    07:00 -3°C° 1,3 mm 9 m/S 742 mmHg 89%
    08:00 -1°C° 1,3 mm 9 m/S 742 mmHg 89%
    09:00 -1°C° 0,8 mm 8 m/S 741 mmHg 90%
    10:00 -1°C° 0,8 mm 8 m/S 741 mmHg 90%
    11:00 -1°C° 0,8 mm 7 m/S 741 mmHg 91%
    12:00 0°C° 0,2 mm 7 m/S 741 mmHg 92%
    13:00 +1°C° 0,2 mm 6 m/S 741 mmHg 93%
    14:00 +1°C° 0,2 mm 6 m/S 742 mmHg 94%
    15:00 +1°C° 0 mm 6 m/S 742 mmHg 93%
    16:00 +1°C° 0 mm 6 m/S 742 mmHg 92%
    17:00 -1°C° 0 mm 6 m/S 742 mmHg 91%
    18:00 -1°C° 0,1 mm 6 m/S 742 mmHg 90%
    19:00 -1°C° 0,1 mm 6 m/S 742 mmHg 90%
    20:00 -1°C° 0,1 mm 6 m/S 743 mmHg 89%
    21:00 -1°C° 0,1 mm 6 m/S 743 mmHg 89%
    22:00 -1°C° 0,1 mm 6 m/S 743 mmHg 88%
    23:00 -1°C° 0,1 mm 6 m/S 744 mmHg 88%

    übermorgen, 26 Januar, Freitag

    Zeit Temperatur Niederschläge Wind Luftdruck Luftfeuchtigkeit
    00:00 -1°C° 0,1 mm 6 m/S 744 mmHg 88%
    01:00 -1°C° 0,1 mm 6 m/S 744 mmHg 87%
    02:00 -1°C° 0,1 mm 6 m/S 745 mmHg 87%
    03:00 -1°C° 0 mm 6 m/S 745 mmHg 87%
    04:00 -1°C° 0 mm 6 m/S 745 mmHg 87%
    05:00 -1°C° 0 mm 6 m/S 745 mmHg 87%
    06:00 -1°C° 0 mm 6 m/S 746 mmHg 87%
    07:00 -1°C° 0 mm 6 m/S 746 mmHg 87%
    08:00 -1°C° 0 mm 6 m/S 747 mmHg 87%
    09:00 -1°C° 0 mm 6 m/S 747 mmHg 87%
    10:00 -1°C° 0 mm 6 m/S 747 mmHg 87%
    11:00 -1°C° 0 mm 6 m/S 748 mmHg 87%
    12:00 -1°C° 0 mm 6 m/S 748 mmHg 87%
    13:00 -1°C° 0 mm 6 m/S 749 mmHg 87%
    14:00 -1°C° 0 mm 6 m/S 749 mmHg 87%
    15:00 -1°C° 0 mm 5 m/S 749 mmHg 87%
    16:00 -1°C° 0 mm 5 m/S 750 mmHg 87%
    17:00 -1°C° 0 mm 5 m/S 750 mmHg 87%
    18:00 -1°C° 0 mm 4 m/S 750 mmHg 88%
    19:00 -1°C° 0 mm 4 m/S 751 mmHg 88%
    20:00 -1°C° 0 mm 4 m/S 751 mmHg 88%
    21:00 -1°C° 0 mm 4 m/S 751 mmHg 89%
    22:00 -1°C° 0 mm 3 m/S 752 mmHg 91%
    23:00 -1°C° 0 mm 3 m/S 752 mmHg 92%

    27 Januar, Samstag

    Zeit Temperatur Niederschläge Wind Luftdruck Luftfeuchtigkeit
    00:00 -1°C° 0 mm 3 m/S 752 mmHg 92%
    01:00 -1°C° 0 mm 3 m/S 752 mmHg 92%
    02:00 -1°C° 0 mm 2 m/S 753 mmHg 92%
    03:00 -1°C° 0 mm 2 m/S 753 mmHg 92%
    04:00 -1°C° 0 mm 2 m/S 753 mmHg 92%
    05:00 -1°C° 0 mm 2 m/S 753 mmHg 92%
    06:00 -1°C° 0 mm 2 m/S 754 mmHg 93%
    07:00 -1°C° 0 mm 2 m/S 754 mmHg 94%
    08:00 -1°C° 0 mm 2 m/S 754 mmHg 95%
    09:00 -1°C° 0 mm 2 m/S 755 mmHg 94%
    10:00 -1°C° 0 mm 2 m/S 755 mmHg 94%
    11:00 -1°C° 0 mm 2 m/S 755 mmHg 94%
    12:00 -1°C° 0 mm 2 m/S 756 mmHg 93%
    13:00 -1°C° 0 mm 2 m/S 756 mmHg 92%
    14:00 -1°C° 0 mm 2 m/S 756 mmHg 92%
    15:00 -1°C° 0 mm 2 m/S 756 mmHg 92%
    16:00 -1°C° 0 mm 2 m/S 757 mmHg 93%
    17:00 -1°C° 0 mm 2 m/S 757 mmHg 94%
    18:00 -2°C° 0 mm 2 m/S 757 mmHg 95%
    19:00 -2°C° 0 mm 2 m/S 757 mmHg 95%
    20:00 -2°C° 0 mm 2 m/S 757 mmHg 96%
    21:00 -2°C° 0 mm 2 m/S 757 mmHg 96%
    22:00 -2°C° 0 mm 2 m/S 757 mmHg 96%
    23:00 -2°C° 0 mm 2 m/S 757 mmHg 97%

    28 Januar, Sonntag

    Zeit Temperatur Niederschläge Wind Luftdruck Luftfeuchtigkeit
    00:00 -2°C° 0,1 mm 2 m/S 757 mmHg 97%
    01:00 -2°C° 0,1 mm 2 m/S 757 mmHg 96%
    02:00 -2°C° 0,1 mm 2 m/S 756 mmHg 96%
    03:00 -2°C° 0,1 mm 2 m/S 756 mmHg 96%
    04:00 -2°C° 0,1 mm 2 m/S 755 mmHg 96%
    05:00 -2°C° 0,1 mm 2 m/S 755 mmHg 96%
    06:00 -2°C° 0,2 mm 3 m/S 754 mmHg 96%
    07:00 -2°C° 0,2 mm 3 m/S 754 mmHg 96%
    08:00 -2°C° 0,2 mm 3 m/S 753 mmHg 95%
    09:00 -2°C° 0,1 mm 2 m/S 753 mmHg 95%
    10:00 -2°C° 0,1 mm 2 m/S 753 mmHg 95%
    11:00 -2°C° 0,1 mm 2 m/S 753 mmHg 94%
    12:00 -2°C° 0 mm 2 m/S 752 mmHg 94%
    13:00 -2°C° 0 mm 2 m/S 752 mmHg 94%
    14:00 -3°C° 0 mm 2 m/S 751 mmHg 93%
    15:00 -3°C° 0 mm 2 m/S 751 mmHg 93%
    16:00 -3°C° 0 mm 2 m/S 750 mmHg 94%
    17:00 -3°C° 0 mm 2 m/S 750 mmHg 94%
    18:00 -3°C° 0 mm 2 m/S 749 mmHg 94%
    19:00 -3°C° 0 mm 2 m/S 748 mmHg 95%
    20:00 -3°C° 0 mm 2 m/S 747 mmHg 95%
    21:00 -3°C° 0,1 mm 2 m/S 747 mmHg 96%
    22:00 -3°C° 0,1 mm 2 m/S 746 mmHg 96%
    23:00 -3°C° 0,1 mm 2 m/S 745 mmHg 96%

    29 Januar, Montag

    Zeit Temperatur Niederschläge Wind Luftdruck Luftfeuchtigkeit
    00:00 -3°C° 0,1 mm 2 m/S 745 mmHg 96%
    01:00 -3°C° 0,1 mm 2 m/S 744 mmHg 96%
    02:00 -3°C° 0,1 mm 2 m/S 744 mmHg 96%
    03:00 -3°C° 0 mm 2 m/S 743 mmHg 97%
    04:00 -1°C° 0 mm 1 m/S 743 mmHg 97%
    05:00 -1°C° 0 mm 1 m/S 742 mmHg 97%
    06:00 -1°C° 0,1 mm 1 m/S 742 mmHg 97%
    07:00 -1°C° 0,1 mm 1 m/S 742 mmHg 97%
    08:00 -2°C° 0,1 mm 1 m/S 742 mmHg 97%
    09:00 -1°C° 0 mm 1 m/S 742 mmHg 97%
    10:00 -1°C° 0 mm 1 m/S 742 mmHg 96%
    11:00 -1°C° 0 mm 1 m/S 742 mmHg 96%
    12:00 -1°C° 0 mm 1 m/S 742 mmHg 96%
    13:00 -1°C° 0 mm 1 m/S 742 mmHg 95%
    14:00 -1°C° 0 mm 1 m/S 741 mmHg 95%
    15:00 -3°C° 0 mm 2 m/S 741 mmHg 96%
    16:00 -3°C° 0 mm 2 m/S 741 mmHg 96%
    17:00 -3°C° 0 mm 2 m/S 740 mmHg 97%
    18:00 -3°C° 0,1 mm 2 m/S 740 mmHg 97%
    19:00 -3°C° 0,1 mm 2 m/S 739 mmHg 96%
    20:00 -3°C° 0,1 mm 2 m/S 739 mmHg 96%
    21:00 -3°C° 0,1 mm 2 m/S 739 mmHg 96%
    22:00 -4°C° 0,1 mm 2 m/S 739 mmHg 96%
    23:00 -4°C° 0,1 mm 2 m/S 739 mmHg 96%
    Mehr zeigen